WD5U-1 Weather Reports


time (UTC)temp
F
wind
direction
speed
knots
gust
knots
rain 1hr
in
rain 24hr
in
rain mn
in
humidity
%
barometer
mb
20260509201824 89 70 5.2 8.7 0.00 0.00 0.00 42 1011.0
20260509201642 89 92 4.3 7.0 0.00 0.00 0.00 43 1010.9
20260509201421 88 153 1.7 3.5 0.00 0.00 0.00 45 1011.0
20260509201219 87 67 5.2 7.8 0.00 0.00 0.00 45 1011.2
20260509201018 87 69 6.1 8.7 0.00 0.00 0.00 45 1011.1
20260509200819 88 70 7.0 9.6 0.00 0.00 0.00 45 1011.2
20260509200626 88 86 3.5 5.2 0.00 0.00 0.00 46 1011.1
20260509200424 88 134 4.3 6.1 0.00 0.00 0.00 46 1011.2
20260509200223 89 126 5.2 7.8 0.00 0.00 0.00 45 1011.1
20260509200021 87 99 2.6 4.3 0.00 0.00 0.00 46 1011.2
20260509195819 87 102 5.2 7.8 0.00 0.00 0.00 47 1011.3
20260509195618 87 81 7.8 11.3 0.00 0.00 0.00 47 1011.4
20260509195457 89 96 5.2 7.8 0.00 0.00 0.00 47 1011.3
20260509195225 90 78 4.3 7.0 0.00 0.00 0.00 47 1011.0
20260509195024 88 118 4.3 6.1 0.00 0.00 0.00 45 1011.3
20260509194825 88 57 6.1 8.7 0.00 0.00 0.00 47 1011.5
20260509194621 89 82 5.2 7.8 0.00 0.00 0.00 47 1011.3
20260509194420 88 105 3.5 5.2 0.00 0.00 0.00 47 1011.2
20260509194218 88 107 3.5 5.2 0.00 0.00 0.00 48 1011.4
20260509194017 88 116 5.2 7.0 0.00 0.00 0.00 46 1011.5
20260509193827 88 137 3.5 4.3 0.00 0.00 0.00 46 1011.5
20260509193644 88 44 1.7 3.5 0.00 0.00 0.00 45 1011.5
20260509193422 88 57 2.6 3.5 0.00 0.00 0.00 44 1011.6
20260509193221 87 78 4.3 6.1 0.00 0.00 0.00 46 1011.7
20260509193100 86 64 5.2 7.8 0.00 0.00 0.00 48 1011.5
20260509192818 86 47 4.3 7.8 0.00 0.00 0.00 48 1011.6
20260509192617 86 32 6.1 7.8 0.00 0.00 0.00 51 1011.6
20260509192426 86 39 7.8 10.4 0.00 0.00 0.00 49 1011.7
20260509192244 89 43 6.1 10.4 0.00 0.00 0.00 48 1011.6
20260509192022 90 49 3.5 5.2 0.00 0.00 0.00 46 1011.6
20260509191841 90 41 2.6 4.3 0.00 0.00 0.00 45 1011.6
20260509191620 90 139 1.7 3.5 0.00 0.00 0.00 46 1011.6
20260509191420 89 79 0.9 1.7 0.00 0.00 0.00 45 1011.8
20260509191219 88 347 1.7 3.5 0.00 0.00 0.00 47 1011.9
20260509191025 87 42 2.6 5.2 0.00 0.00 0.00 47 1011.9
20260509190824 87 25 5.2 7.8 0.00 0.00 0.00 48 1011.6
20260509190704 88 32 4.3 5.2 0.00 0.00 0.00 48 1011.8
20260509190421 87 99 3.5 5.2 0.00 0.00 0.00 49 1011.9
20260509190219 86 105 2.6 5.2 0.00 0.00 0.00 50 1011.7
20260509190020 87 101 4.3 7.8 0.00 0.00 0.00 49 1011.8
20260509185816 87 96 3.5 5.2 0.00 0.00 0.00 50 1011.8
20260509185625 86 78 4.3 7.0 0.00 0.00 0.00 51 1011.9
20260509185423 87 63 5.2 7.0 0.00 0.00 0.00 54 1011.9
20260509185222 87 66 3.5 5.2 0.00 0.00 0.00 52 1011.8
20260509185021 85 72 3.5 5.2 0.00 0.00 0.00 53 1011.8
20260509184819 86 36 7.0 8.7 0.00 0.00 0.00 54 1011.9
20260509184618 85 68 6.1 8.7 0.00 0.00 0.00 53 1011.9
20260509184436 86 49 5.2 7.8 0.00 0.00 0.00 53 1012.0
20260509184225 86 64 7.0 10.4 0.00 0.00 0.00 52 1012.0
20260509184026 88 52 5.2 8.7 0.00 0.00 0.00 50 1012.0
20260509183822 88 51 2.6 3.5 0.00 0.00 0.00 51 1012.1
20260509183621 87 273 0.9 1.7 0.00 0.00 0.00 54 1012.0
20260509183419 86 67 3.5 5.2 0.00 0.00 0.00 53 1011.9
20260509183218 86 62 5.2 7.8 0.00 0.00 0.00 53 1012.0
20260509183036 85 38 3.5 5.2 0.00 0.00 0.00 49 1012.3
20260509182825 85 37 4.3 9.6 0.00 0.00 0.00 46 1012.1
20260509182623 87 36 7.8 11.3 0.00 0.00 0.00 50 1012.1
20260509182444 87 5 1.7 3.5 0.00 0.00 0.00 50 1012.2
20260509182220 85 40 2.6 5.2 0.00 0.00 0.00 49 1012.1
20260509182019 86 51 6.1 7.8 0.00 0.00 0.00 54 1012.2
20260509181817 86 24 1.7 1.7 0.00 0.00 0.00 53 1012.2
20260509181616 86 338 1.7 3.5 0.00 0.00 0.00 54 1012.4
20260509181427 86 123 0.9 1.7 0.00 0.00 0.00 51 1012.2
20260509181243 86 41 3.5 4.3 0.00 0.00 0.00 51 1012.4
20260509181022 84 59 1.7 2.6 0.00 0.00 0.00 53 1012.3
20260509180824 83 48 6.1 9.6 0.00 0.00 0.00 56 1012.4
20260509180620 86 52 7.8 11.3 0.00 0.00 0.00 56 1012.3
20260509180417 86 54 2.6 4.3 0.00 0.00 0.00 57 1012.2
20260509180216 85 8 4.3 8.7 0.00 0.00 0.00 57 1012.4
20260509180045 86 55 4.3 7.8 0.00 0.00 0.00 57 1012.4
20260509175823 85 104 2.6 5.2 0.00 0.00 0.00 59 1012.6
20260509175622 84 313 1.7 4.3 0.00 0.00 0.00 58 1012.4
20260509175420 84 356 0.0 2.6 0.00 0.00 0.00 58 1012.4
20260509175219 84 269 3.5 5.2 0.00 0.00 0.00 58 1012.5
20260509175020 83 47 2.6 4.3 0.00 0.00 0.00 58 1012.6
20260509174816 82 45 4.3 7.8 0.00 0.00 0.00 58 1012.4
20260509174625 82 45 7.0 9.6 0.00 0.00 0.00 60 1012.6
20260509174423 83 33 7.0 9.6 0.00 0.00 0.00 58 1012.6
20260509174222 84 18 6.1 13.9 0.00 0.00 0.00 59 1012.7
20260509174042 83 5 2.6 3.5 0.00 0.00 0.00 61 1012.5
20260509173819 84 336 3.5 5.2 0.00 0.00 0.00 60 1012.7
20260509173617 84 47 2.6 3.5 0.00 0.00 0.00 60 1012.7
20260509173416 84 67 4.3 6.1 0.00 0.00 0.00 59 1012.7
20260509173225 84 34 3.5 4.3 0.00 0.00 0.00 58 1012.7
20260509173023 85 13 3.5 6.1 0.00 0.00 0.00 59 1012.8
20260509172822 84 13 4.3 5.2 0.00 0.00 0.00 60 1012.8
20260509172623 85 31 5.2 7.8 0.00 0.00 0.00 59 1012.8
20260509172419 85 130 1.7 3.5 0.00 0.00 0.00 59 1012.7
20260509172217 83 49 3.5 5.2 0.00 0.00 0.00 61 1012.9
20260509172016 83 36 3.5 6.1 0.00 0.00 0.00 61 1012.8
20260509171825 83 34 3.5 6.1 0.00 0.00 0.00 62 1012.9
20260509171623 83 331 0.9 1.7 0.00 0.00 0.00 61 1012.8
20260509171421 84 332 1.7 4.3 0.00 0.00 0.00 60 1012.9
20260509171220 83 18 2.6 6.1 0.00 0.00 0.00 60 1013.0
20260509171020 83 38 3.5 5.2 0.00 0.00 0.00 60 1013.0
20260509170817 83 35 5.2 7.8 0.00 0.00 0.00 61 1013.1
20260509170616 83 12 2.6 5.2 0.00 0.00 0.00 61 1013.0
20260509170505 83 220 1.7 2.6 0.00 0.00 0.00 61 1013.0
20260509170225 82 26 2.6 3.5 0.00 0.00 0.00 60 1013.1
20260509170024 83 44 3.5 7.8 0.00 0.00 0.00 61 1013.2
20260509165820 83 50 2.6 4.3 0.00 0.00 0.00 60 1013.0
20260509165618 84 35 5.2 7.8 0.00 0.00 0.00 59 1013.1
20260509165417 84 65 1.7 3.5 0.00 0.00 0.00 59 1013.0
20260509165236 83 89 1.7 3.5 0.00 0.00 0.00 60 1013.2
20260509165024 83 40 2.6 4.3 0.00 0.00 0.00 59 1013.3
20260509164845 82 24 2.6 3.5 0.00 0.00 0.00 60 1013.4
20260509164624 82 8 2.6 4.3 0.00 0.00 0.00 62 1013.3
20260509164424 82 334 4.3 7.0 0.00 0.00 0.00 63 1013.3
20260509164219 82 10 2.6 4.3 0.00 0.00 0.00 63 1013.3
20260509164017 81 26 3.5 5.2 0.00 0.00 0.00 63 1013.2
20260509163828 80 314 3.5 4.3 0.00 0.00 0.00 66 1013.1
20260509163624 80 273 2.6 3.5 0.00 0.00 0.00 63 1013.3
20260509163423 81 264 1.7 3.5 0.00 0.00 0.00 63 1013.2
20260509163221 80 249 1.7 3.5 0.00 0.00 0.00 65 1013.3
20260509163020 81 289 4.3 4.3 0.00 0.00 0.00 63 1013.2
20260509162823 80 328 0.9 2.6 0.00 0.00 0.00 64 1013.4
20260509162637 81 3 3.5 6.1 0.00 0.00 0.00 63 1013.3
20260509162425 80 351 1.7 3.5 0.00 0.00 0.00 64 1013.2
20260509162224 82 302 1.7 3.5 0.00 0.00 0.00 62 1013.2
20260509162043 80 70 1.7 2.6 0.00 0.00 0.00 63 1013.2
20260509161841 79 346 2.6 6.1 0.00 0.00 0.00 65 1013.2
20260509161640 81 3 4.3 7.0 0.00 0.00 0.00 65 1013.3
20260509161418 80 22 4.3 5.2 0.00 0.00 0.00 64 1013.2
20260509161217 80 285 3.5 5.2 0.00 0.00 0.00 66 1013.2
20260509161025 80 333 0.9 3.5 0.00 0.00 0.00 65 1013.2
20260509160824 80 350 0.9 1.7 0.00 0.00 0.00 65 1013.2
20260509160622 82 287 3.5 5.2 0.00 0.00 0.00 64 1013.2
20260509160421 82 123 0.9 2.6 0.00 0.00 0.00 61 1013.3
20260509160220 81 5 0.9 2.6 0.00 0.00 0.00 62 1013.2
20260509160018 80 46 1.7 2.6 0.00 0.00 0.00 64 1013.4
20260509155817 79 31 3.5 4.3 0.00 0.00 0.00 65 1013.3
20260509155806 79 38 3.5 5.2 0.00 0.00 0.00 66 1013.2
20260509155424 80 323 2.6 5.2 0.00 0.00 0.00 66 1013.3
20260509155223 80 6 2.6 6.1 0.00 0.00 0.00 67 1013.3
20260509155023 80 27 2.6 4.3 0.00 0.00 0.00 66 1013.1
20260509154820 78 321 2.6 5.2 0.00 0.00 0.00 70 1013.2
20260509154658 79 310 3.5 5.2 0.00 0.00 0.00 68 1013.3
20260509154417 78 302 0.9 2.6 0.00 0.00 0.00 67 1013.3
20260509154225 78 323 0.9 1.7 0.00 0.00 0.00 68 1013.4
20260509154024 77 300 2.6 5.2 0.00 0.00 0.00 69 1013.1
20260509153823 78 330 4.3 5.2 0.00 0.00 0.00 68 1013.1
20260509153622 79 13 1.7 3.5 0.00 0.00 0.00 66 1013.0
20260509153421 79 13 2.6 3.5 0.00 0.00 0.00 67 1013.2
20260509153240 79 12 3.5 4.3 0.00 0.00 0.00 69 1013.1
20260509153017 78 78 0.9 1.7 0.00 0.00 0.00 69 1013.1
20260509152826 77 277 2.6 4.3 0.00 0.00 0.00 70 1013.2
20260509152624 77 330 2.6 4.3 0.00 0.00 0.00 71 1013.1
20260509152422 77 354 1.7 3.5 0.00 0.00 0.00 70 1013.1
20260509152221 76 266 3.5 4.3 0.00 0.00 0.00 75 1013.2
20260509152020 76 218 3.5 5.2 0.00 0.00 0.00 75 1013.1
20260509151818 76 255 5.2 7.8 0.00 0.00 0.00 76 1013.2
20260509151637 76 255 5.2 7.0 0.00 0.00 0.00 74 1013.2
20260509151425 76 316 2.6 3.5 0.00 0.00 0.00 75 1013.2
20260509151224 75 256 4.3 6.1 0.00 0.00 0.00 77 1013.0
20260509151023 75 277 2.6 4.3 0.00 0.00 0.00 75 1013.2
20260509150841 75 252 5.2 6.1 0.00 0.00 0.00 75 1013.1
20260509150620 75 258 5.2 7.0 0.00 0.00 0.00 78 1013.2
20260509150438 76 270 5.2 7.0 0.00 0.00 0.00 76 1013.1
20260509150216 75 315 0.9 2.6 0.00 0.00 0.00 75 1013.1
20260509150026 75 273 4.3 5.2 0.00 0.00 0.00 77 1013.2
20260509145824 75 259 2.6 4.3 0.00 0.00 0.00 78 1013.2
20260509145622 75 244 4.3 5.2 0.00 0.00 0.00 77 1013.1
20260509145421 74 257 4.3 5.2 0.00 0.00 0.00 79 1013.1
20260509145220 74 273 5.2 7.8 0.00 0.00 0.00 80 1013.2
20260509145018 74 304 3.5 5.2 0.00 0.00 0.00 79 1013.0
20260509144816 74 316 3.5 5.2 0.00 0.00 0.00 79 1013.1
20260509144625 74 308 2.6 3.5 0.00 0.00 0.00 81 1012.9
20260509144424 74 255 6.1 7.8 0.00 0.00 0.00 82 1013.1
20260509144222 73 251 6.1 7.8 0.00 0.00 0.00 81 1013.0
20260509144022 73 263 5.2 7.0 0.00 0.00 0.00 82 1013.1
20260509143819 73 276 6.1 7.8 0.00 0.00 0.00 82 1013.3
20260509143618 73 294 4.3 6.1 0.00 0.00 0.00 82 1013.1
20260509143417 73 276 5.2 7.0 0.00 0.00 0.00 82 1013.1
20260509143225 72 272 6.1 7.8 0.00 0.00 0.00 83 1013.0
20260509143044 72 297 5.2 7.8 0.00 0.00 0.00 83 1012.9
20260509142822 72 272 7.0 8.7 0.00 0.00 0.00 83 1013.0
20260509142641 72 296 4.3 5.2 0.00 0.00 0.00 82 1013.2
20260509142419 72 264 5.2 6.1 0.00 0.00 0.00 83 1012.9
20260509142221 72 258 4.3 6.1 0.00 0.00 0.00 83 1013.2
20260509142020 72 253 5.2 6.1 0.00 0.00 0.00 83 1013.0
20260509141825 72 252 4.3 5.2 0.00 0.00 0.00 83 1013.2
20260509141624 72 270 3.5 4.3 0.00 0.00 0.00 84 1013.2
20260509141442 72 269 5.2 6.1 0.00 0.00 0.00 83 1013.2
20260509141221 72 265 4.3 5.2 0.00 0.00 0.00 85 1013.1
20260509141019 72 290 2.6 4.3 0.00 0.00 0.00 84 1013.1
20260509140818 72 259 2.6 3.5 0.00 0.00 0.00 84 1012.9
20260509140616 72 258 2.6 3.5 0.00 0.00 0.00 83 1013.0
20260509140428 72 272 2.6 3.5 0.00 0.00 0.00 83 1013.3
20260509140227 72 273 3.5 5.2 0.00 0.00 0.00 84 1013.3
20260509140022 72 264 3.5 4.3 0.00 0.00 0.00 83 1013.2
20260509135821 72 296 4.3 5.2 0.00 0.00 0.00 84 1013.2
20260509135619 71 270 4.3 5.2 0.00 0.00 0.00 84 1013.1
20260509135418 71 323 3.5 3.5 0.00 0.00 0.00 83 1013.0
20260509135216 71 281 2.6 4.3 0.00 0.00 0.00 84 1013.0
20260509135025 71 312 2.6 3.5 0.00 0.00 0.00 84 1013.0
20260509134826 71 275 4.3 5.2 0.00 0.00 0.00 84 1013.0
20260509134622 71 249 5.2 6.1 0.00 0.00 0.00 84 1013.0
20260509134421 71 289 4.3 5.2 0.00 0.00 0.00 84 1013.0
20260509134219 71 295 4.3 6.1 0.00 0.00 0.00 84 1013.1
20260509134018 71 280 6.1 7.0 0.00 0.00 0.00 83 1013.2
20260509133816 71 287 3.5 5.2 0.00 0.00 0.00 83 1013.1
20260509133625 71 294 4.3 6.1 0.00 0.00 0.00 83 1013.0
20260509133423 70 296 3.5 5.2 0.00 0.00 0.00 84 1013.0
20260509133242 70 305 4.3 5.2 0.00 0.00 0.00 84 1013.2
20260509133023 70 293 4.3 5.2 0.00 0.00 0.00 84 1012.9
20260509132821 70 289 4.3 5.2 0.00 0.00 0.00 85 1013.0
20260509132617 70 305 5.2 6.1 0.00 0.00 0.00 85 1012.9
20260509132416 69 298 4.3 5.2 0.00 0.00 0.00 85 1012.8
20260509132225 69 289 5.2 6.1 0.00 0.00 0.00 86 1013.0
20260509132024 69 298 4.3 5.2 0.00 0.00 0.00 86 1012.9
20260509131822 69 311 5.2 6.1 0.00 0.00 0.00 86 1013.0
20260509131620 68 312 5.2 6.1 0.00 0.00 0.00 87 1013.1
20260509131422 68 302 4.3 5.2 0.00 0.00 0.00 87 1013.0
20260509131217 68 320 4.3 5.2 0.00 0.00 0.00 88 1013.1
20260509131016 68 320 3.5 5.2 0.00 0.00 0.00 88 1012.9
20260509130825 68 318 4.3 6.1 0.00 0.00 0.00 89 1012.8
20260509130623 68 312 5.2 6.1 0.00 0.00 0.00 88 1013.2
20260509130422 68 305 4.3 6.1 0.00 0.00 0.00 88 1013.0
20260509130220 67 297 3.5 5.2 0.00 0.00 0.00 89 1012.9
20260509130019 67 277 3.5 4.3 0.00 0.00 0.00 89 1013.0
20260509125817 67 309 3.5 6.1 0.00 0.00 0.00 89 1012.9
20260509125616 67 309 4.3 6.1 0.00 0.00 0.00 90 1012.9
20260509125425 67 310 4.3 5.2 0.00 0.00 0.00 90 1012.9
20260509125223 66 318 4.3 5.2 0.00 0.00 0.00 90 1012.8
20260509125022 66 313 5.2 6.1 0.00 0.00 0.00 91 1012.9
20260509124840 66 286 5.2 6.1 0.00 0.00 0.00 91 1012.9
20260509124619 65 291 5.2 7.0 0.00 0.00 0.00 92 1013.1
20260509124417 65 283 4.3 6.1 0.00 0.02 0.00 92 1013.1
20260509124236 65 281 5.2 5.2 0.00 0.02 0.00 92 1013.2
20260509124024 65 281 3.5 3.5 0.00 0.06 0.00 92 1013.1
20260509123826 65 293 2.6 3.5 0.00 0.10 0.00 92 1013.0
20260509123621 65 291 2.6 3.5 0.00 0.15 0.00 93 1012.8
20260509123420 65 291 2.6 3.5 0.00 0.17 0.00 93 1012.8
20260509123319 64 272 3.5 4.3 0.00 0.19 0.00 94 1013.0
20260509123019 64 261 4.3 4.3 0.00 0.20 0.00 94 1013.0
20260509122818 64 243 4.3 6.1 0.00 0.20 0.00 94 1012.9
20260509122624 64 233 3.5 4.3 0.00 0.20 0.00 94 1012.8
20260509122425 64 246 3.5 4.3 0.00 0.20 0.00 94 1012.7
20260509122222 64 245 2.6 2.6 0.00 0.20 0.00 94 1012.7
20260509122020 64 261 1.7 2.6 0.00 0.20 0.00 95 1012.7
20260509121819 63 273 2.6 3.5 0.00 0.20 0.00 95 1012.5
20260509121617 63 268 3.5 3.5 0.00 0.20 0.00 95 1012.7
20260509121416 63 238 2.6 3.5 0.00 0.20 0.00 95 1012.7
20260509121249 63 206 4.3 5.2 0.00 0.20 0.00 95 1012.7
20260509121023 63 206 5.2 6.1 0.00 0.20 0.00 95 1012.5
20260509120942 63 208 3.5 5.2 0.00 0.20 0.00 95 1012.5
20260509120640 63 245 3.5 5.2 0.00 0.20 0.00 95 1012.4
20260509120419 63 250 2.6 3.5 0.00 0.20 0.00 95 1012.3
20260509120300 63 274 3.5 5.2 0.00 0.20 0.00 95 1012.3
20260509120036 63 285 3.5 4.3 0.00 0.20 0.00 96 1012.4
20260509115826 63 260 3.5 4.3 0.00 0.20 0.00 96 1012.5
20260509115623 63 247 4.3 6.1 0.00 0.20 0.00 96 1012.5
20260509115421 63 238 3.5 5.2 0.00 0.20 0.00 96 1012.6
20260509115240 63 240 4.3 6.1 0.00 0.20 0.00 96 1012.2
20260509115021 63 254 4.3 5.2 0.00 0.20 0.00 96 1012.2
20260509114817 63 257 4.3 5.2 0.00 0.20 0.00 96 1012.3
20260509114616 63 268 5.2 7.0 0.00 0.20 0.00 96 1012.3
20260509114427 63 263 6.1 7.8 0.00 0.20 0.00 96 1012.2
20260509114223 63 252 5.2 7.8 0.00 0.20 0.00 97 1012.3
20260509114022 63 252 5.2 6.1 0.00 0.20 0.00 97 1012.4
20260509113820 63 250 3.5 4.3 0.00 0.20 0.00 97 1012.2
20260509113623 63 238 3.5 4.3 0.00 0.20 0.00 97 1012.3
20260509113417 63 224 2.6 3.5 0.00 0.20 0.00 97 1012.3
20260509113216 63 245 2.6 3.5 0.00 0.20 0.00 97 1012.2
20260509113027 63 234 3.5 5.2 0.00 0.20 0.00 97 1012.1
20260509112823 63 236 4.3 6.1 0.00 0.20 0.00 97 1012.2
20260509112621 63 228 4.3 5.2 0.00 0.20 0.00 97 1012.2
20260509112440 63 226 5.2 6.1 0.00 0.20 0.00 97 1011.9
20260509112221 63 239 5.2 7.0 0.00 0.20 0.00 98 1012.1
20260509112019 63 256 5.2 6.1 0.00 0.20 0.00 98 1011.9
20260509111816 63 255 6.1 7.8 0.00 0.20 0.00 98 1011.8
20260509111624 63 249 7.0 8.7 0.00 0.20 0.00 98 1011.8
20260509111423 63 231 4.3 5.2 0.00 0.21 0.00 98 1012.0
20260509111222 63 221 4.3 6.1 0.00 0.21 0.00 98 1012.0
20260509111020 63 237 4.3 5.2 0.00 0.21 0.00 98 1011.8
20260509110819 63 268 3.5 4.3 0.00 0.22 0.00 98 1011.6
20260509110617 64 275 2.6 3.5 0.00 0.22 0.00 98 1011.5
20260509110415 64 308 3.5 3.5 0.00 0.22 0.00 98 1011.4
20260509110224 64 326 2.6 3.5 0.00 0.22 0.00 98 1011.4
20260509110023 64 345 2.6 3.5 0.00 0.22 0.00 98 1011.3
20260509105841 64 345 2.6 4.3 0.00 0.22 0.00 97 1011.3
20260509105620 64 356 2.6 3.5 0.00 0.22 0.00 97 1011.3
20260509105418 64 354 2.6 3.5 0.00 0.22 0.00 97 1011.3
20260509105221 64 12 3.5 4.3 0.00 0.22 0.00 97 1011.3
20260509105019 64 24 3.5 4.3 0.00 0.22 0.00 97 1011.4
20260509104845 65 35 3.5 3.5 0.00 0.22 0.00 97 1011.3
20260509104643 65 33 3.5 4.3 0.00 0.22 0.00 97 1011.3
20260509104421 65 43 3.5 4.3 0.00 0.22 0.00 97 1011.4
20260509104220 65 31 2.6 3.5 0.00 0.22 0.00 97 1011.2
20260509104020 65 31 3.5 4.3 0.00 0.22 0.00 97 1011.2
20260509103837 65 33 4.3 6.1 0.00 0.22 0.00 97 1011.3
20260509103616 65 32 6.1 7.0 0.00 0.22 0.00 97 1011.3
20260509103424 65 32 6.1 7.8 0.00 0.22 0.00 97 1011.4
20260509103223 65 27 6.1 7.8 0.00 0.22 0.00 97 1011.2
20260509103021 65 30 6.1 7.8 0.00 0.22 0.00 97 1011.2
20260509102820 65 31 6.1 7.8 0.00 0.22 0.00 97 1011.1
20260509102622 65 27 7.0 10.4 0.00 0.22 0.00 97 1011.2
20260509102417 65 13 6.1 8.7 0.00 0.22 0.00 97 1011.3
20260509102216 65 15 5.2 7.0 0.00 0.22 0.00 97 1011.2
20260509102026 65 12 4.3 6.1 0.00 0.22 0.00 97 1011.2
20260509101823 65 8 4.3 5.2 0.00 0.22 0.00 97 1011.2
20260509101641 65 15 4.3 6.1 0.00 0.22 0.00 97 1011.2
20260509101420 65 8 3.5 5.2 0.00 0.22 0.00 96 1011.1
20260509101218 65 19 6.1 8.7 0.00 0.22 0.00 96 1011.2
20260509101040 65 24 6.1 9.6 0.00 0.22 0.00 96 1011.1
20260509100815 65 26 5.2 7.8 0.00 0.22 0.00 96 1011.1
20260509100624 66 20 6.1 8.7 0.00 0.22 0.00 96 1011.1
20260509100423 66 21 6.1 9.6 0.00 0.22 0.00 96 1011.0
20260509100221 66 21 6.1 8.7 0.00 0.22 0.00 96 1010.8
20260509100020 66 20 6.1 8.7 0.00 0.22 0.00 96 1010.9
20260509095819 66 20 6.1 8.7 0.00 0.22 0.00 96 1010.8
20260509095617 66 20 7.0 9.6 0.00 0.22 0.00 96 1010.7
20260509095438 66 24 8.7 12.2 0.00 0.22 0.00 96 1010.6
20260509095224 66 21 7.8 9.6 0.00 0.22 0.00 96 1010.7
20260509095025 66 24 9.6 13.0 0.00 0.22 0.00 96 1010.6
20260509094821 66 29 7.8 12.2 0.00 0.22 0.00 96 1010.6
20260509094620 66 24 7.8 10.4 0.00 0.22 0.00 96 1010.4
20260509094418 66 26 7.8 9.6 0.00 0.22 0.00 96 1010.7
20260509094249 66 25 8.7 9.6 0.00 0.22 0.00 96 1010.3
20260509093824 66 20 9.6 12.2 0.00 0.22 0.00 96 1010.4
20260509093622 66 16 6.1 11.3 0.00 0.22 0.00 96 1010.3
20260509093421 66 13 5.2 7.0 0.00 0.22 0.00 96 1010.4
20260509093220 67 12 6.1 7.8 0.00 0.22 0.00 96 1010.4
20260509093018 67 12 7.8 9.6 0.00 0.22 0.00 96 1010.5
20260509092817 67 19 7.0 9.6 0.00 0.22 0.00 96 1010.5
20260509092625 67 14 5.2 7.8 0.00 0.22 0.00 96 1010.4
20260509092424 67 10 4.3 6.1 0.00 0.22 0.00 96 1010.4
20260509092243 67 4 4.3 7.0 0.00 0.22 0.00 96 1010.3
20260509092021 67 15 5.2 6.1 0.00 0.22 0.00 96 1010.4
20260509091820 67 16 5.2 7.0 0.00 0.22 0.00 96 1010.4
20260509091618 67 10 3.5 5.2 0.00 0.22 0.00 96 1010.5
20260509091417 67 13 6.1 7.8 0.00 0.22 0.00 96 1010.3
20260509091217 67 12 5.2 7.8 0.00 0.22 0.00 96 1010.3
20260509091025 67 6 5.2 8.7 0.00 0.22 0.00 95 1010.3
20260509090823 67 11 4.3 7.0 0.00 0.22 0.00 95 1010.4
20260509090621 67 15 5.2 7.0 0.00 0.22 0.00 95 1010.2
20260509090420 67 12 6.1 8.7 0.00 0.22 0.00 95 1010.4
20260509090218 67 14 5.2 7.8 0.00 0.22 0.00 95 1010.3
20260509090017 67 9 5.2 7.8 0.00 0.22 0.00 95 1010.3
20260509085847 67 19 5.2 8.7 0.00 0.22 0.00 95 1010.2
20260509085624 67 21 6.1 8.7 0.00 0.22 0.00 95 1010.4
20260509085425 67 16 6.1 7.8 0.00 0.22 0.00 95 1010.5
20260509085221 67 6 5.2 7.8 0.00 0.22 0.00 95 1010.3
20260509085022 67 12 6.1 7.8 0.00 0.22 0.00 95 1010.3
20260509084818 67 25 7.8 12.2 0.00 0.22 0.00 95 1010.4
20260509084617 67 13 6.1 10.4 0.00 0.22 0.00 95 1010.4
20260509084425 67 17 7.8 9.6 0.00 0.22 0.00 95 1010.4
20260509084224 67 27 8.7 12.2 0.00 0.22 0.00 95 1010.2
20260509084022 67 18 8.7 13.9 0.00 0.22 0.00 94 1010.4
20260509083821 67 32 10.4 14.8 0.00 0.22 0.00 94 1010.4
20260509083620 68 26 12.2 16.5 0.00 0.22 0.00 94 1010.6
20260509083418 68 11 7.8 13.0 0.00 0.22 0.00 94 1010.5
20260509083216 68 19 7.8 10.4 0.00 0.22 0.00 94 1010.6
20260509083045 68 14 8.7 12.2 0.00 0.22 0.00 94 1010.5
20260509082824 68 8 7.0 10.4 0.00 0.22 0.00 94 1010.5
20260509082625 68 9 7.8 11.3 0.00 0.22 0.00 93 1010.6
20260509082423 68 8 8.7 13.0 0.00 0.22 0.00 93 1010.6
20260509082220 68 2 5.2 9.6 0.00 0.22 0.00 93 1010.5
20260509082018 68 12 7.8 11.3 0.00 0.22 0.00 92 1010.6
20260509081817 68 13 9.6 13.0 0.00 0.22 0.00 92 1010.4
20260509081625 69 14 9.6 15.6 0.00 0.22 0.00 92 1010.4
20260509081444 69 14 11.3 16.5 0.00 0.22 0.00 92 1010.4
20260509081222 68 7 8.7 11.3 0.00 0.22 0.00 92 1010.4
20260509081021 69 16 7.8 15.6 0.00 0.22 0.00 91 1010.5
20260509080839 69 3 9.6 16.5 0.00 0.22 0.00 91 1010.3
20260509080618 69 8 11.3 16.5 0.00 0.22 0.00 91 1010.3
20260509080416 69 15 9.6 13.0 0.00 0.22 0.00 90 1010.3
20260509080225 69 12 8.7 13.9 0.00 0.22 0.00 90 1010.5
20260509080024 69 358 6.1 13.0 0.00 0.22 0.00 90 1010.4
20260509075822 69 327 6.1 9.6 0.00 0.22 0.00 90 1010.3
20260509075621 69 346 7.0 13.0 0.00 0.22 0.00 89 1010.3
20260509075420 69 329 9.6 16.5 0.00 0.22 0.00 88 1010.3
20260509075220 69 359 8.7 13.0 0.00 0.22 0.00 87 1010.4
20260509075016 70 335 8.7 16.5 0.00 0.22 0.00 86 1010.2
20260509074825 70 326 7.8 13.0 0.00 0.22 0.00 85 1010.3
20260509074623 70 332 7.0 13.0 0.00 0.22 0.00 84 1010.3
20260509074424 71 322 12.2 18.2 0.00 0.22 0.00 81 1010.4
20260509074222 71 334 8.7 15.6 0.00 0.22 0.00 79 1010.2
20260509074019 71 333 7.8 12.2 0.00 0.22 0.00 77 1010.1
20260509073819 71 336 6.1 11.3 0.00 0.22 0.00 80 1010.0
20260509073636 71 318 8.7 16.5 0.00 0.22 0.00 82 1009.7
20260509073425 70 295 13.9 18.2 0.00 0.22 0.00 81 1009.7
20260509073226 71 313 13.9 15.6 0.00 0.22 0.00 82 1009.9
20260509073022 70 288 11.3 16.5 0.00 0.22 0.00 83 1009.7
20260509072820 72 304 23.5 30.4 0.00 0.22 0.00 80 1009.3
20260509072621 74 288 17.4 21.7 0.00 0.22 0.00 67 1008.6
20260509072418 71 213 9.6 11.3 0.00 0.22 0.00 73 1008.3
20260509072219 71 311 7.0 12.2 0.00 0.22 0.00 82 1008.6
20260509072026 71 232 10.4 14.8 0.00 0.22 0.00 79 1008.3
20260509071823 72 241 9.6 14.8 0.00 0.22 0.00 80 1008.2
20260509071642 73 231 14.8 21.7 0.00 0.22 0.00 74 1008.3
20260509071421 69 212 10.4 16.5 0.00 0.22 0.00 84 1008.5
20260509071219 68 310 6.1 11.3 0.00 0.22 0.00 92 1008.7
20260509071037 69 106 8.7 15.6 0.00 0.22 0.00 92 1008.6
20260509070820 68 153 13.9 17.4 0.00 0.22 0.00 93 1008.5
20260509070625 69 179 13.0 16.5 0.00 0.22 0.00 91 1008.8
20260509070423 69 204 7.0 8.7 0.00 0.22 0.00 92 1009.7
20260509070222 69 199 7.0 10.4 0.00 0.22 0.00 92 1010.0
20260509070020 69 215 7.8 9.6 0.00 0.22 0.00 91 1010.2
20260509065821 69 212 10.4 14.8 0.00 0.22 0.00 91 1010.4
20260509065620 69 217 9.6 11.3 0.00 0.22 0.00 92 1010.2
20260509065436 69 207 14.8 18.2 0.00 0.22 0.00 92 1010.2
20260509065225 69 214 10.4 13.0 0.00 0.22 0.00 93 1010.5
20260509065023 69 231 9.6 13.9 0.00 0.22 0.00 93 1010.6
20260509064822 69 245 10.4 15.6 0.00 0.22 0.00 92 1010.5
20260509064620 69 230 10.4 15.6 0.00 0.22 0.00 92 1010.6
20260509064419 69 217 12.2 15.6 0.00 0.22 0.00 93 1010.5
20260509064218 69 216 10.4 16.5 0.00 0.22 0.00 93 1010.7
20260509064017 69 203 9.6 13.0 0.00 0.22 0.00 92 1010.8
20260509063825 69 205 13.9 18.2 0.00 0.22 0.00 92 1010.7
20260509063623 69 201 13.0 16.5 0.00 0.22 0.00 92 1010.8
20260509063442 69 209 11.3 14.8 0.00 0.22 0.00 92 1010.9
20260509063221 69 202 11.3 15.6 0.00 0.22 0.00 92 1010.8
20260509063019 69 215 13.9 18.2 0.00 0.22 0.00 92 1010.9
20260509062818 69 212 10.4 14.8 0.00 0.22 0.00 92 1010.8
20260509062616 69 226 10.4 15.6 0.00 0.22 0.00 92 1011.1
20260509062425 69 205 13.0 19.1 0.00 0.22 0.00 93 1011.2
20260509062226 69 204 10.4 13.9 0.00 0.22 0.00 92 1011.2
20260509062024 69 202 9.6 13.0 0.00 0.22 0.00 93 1011.3
20260509061821 69 201 10.4 14.8 0.00 0.22 0.00 92 1011.3
20260509061619 69 204 13.9 18.2 0.00 0.22 0.00 93 1011.3
20260509061417 68 199 13.0 16.5 0.00 0.22 0.00 93 1011.3
20260509061216 68 207 10.4 15.6 0.00 0.22 0.00 93 1011.6
20260509061025 68 205 13.0 16.5 0.00 0.22 0.00 93 1011.6
20260509060823 68 209 13.9 18.2 0.00 0.22 0.00 93 1011.8
20260509060626 68 201 14.8 17.4 0.00 0.22 0.00 93 1011.8
20260509060420 68 203 14.8 17.4 0.00 0.22 0.00 93 1011.8
20260509060219 68 209 10.4 13.9 0.00 0.22 0.00 93 1011.9
20260509060018 68 205 12.2 14.8 0.00 0.22 0.00 93 1011.9
20260509055856 68 210 13.0 14.8 0.00 0.22 0.00 93 1011.9
20260509055625 68 228 11.3 14.8 0.00 0.22 0.00 93 1012.3
20260509055424 68 227 10.4 12.2 0.00 0.22 0.00 93 1012.3
20260509055222 68 228 13.0 17.4 0.00 0.22 0.00 93 1012.2
20260509055021 68 231 11.3 13.9 0.00 0.22 0.00 93 1012.2
20260509054839 68 224 10.4 13.0 0.00 0.22 0.00 93 1012.4
20260509054638 68 251 8.7 10.4 0.00 0.22 0.00 93 1012.4
20260509054416 68 255 7.8 10.4 0.00 0.22 0.00 93 1012.5
20260509054225 68 239 6.1 7.8 0.00 0.22 0.00 93 1012.2
20260509054023 68 199 5.2 7.0 0.00 0.22 0.00 93 1012.2
20260509053822 68 210 5.2 7.8 0.00 0.22 0.00 93 1012.1
20260509053620 68 205 8.7 12.2 0.00 0.22 0.00 93 1012.0
20260509053419 68 202 11.3 13.9 0.00 0.22 0.00 93 1012.0
20260509053217 68 207 11.3 13.9 0.00 0.22 0.00 93 1011.8
20260509053036 68 207 9.6 13.0 0.00 0.22 0.00 93 1011.9
20260509052825 68 221 7.0 8.7 0.00 0.22 0.00 93 1011.9
20260509052625 68 234 8.7 10.4 0.00 0.22 0.00 93 1012.0
20260509052422 68 206 11.3 13.9 0.00 0.22 0.00 93 1011.4
20260509052223 67 207 11.3 15.6 0.00 0.22 0.00 93 1011.5
20260509052019 67 203 11.3 14.8 0.00 0.22 0.00 93 1011.7
20260509051817 67 202 11.3 13.9 0.00 0.22 0.00 93 1011.9
20260509051616 68 215 10.4 13.9 0.00 0.22 0.00 93 1012.0
20260509051424 68 218 10.4 12.2 0.00 0.22 0.00 93 1012.1
20260509051223 68 205 9.6 12.2 0.00 0.22 0.00 93 1012.2
20260509051022 67 210 7.8 10.4 0.00 0.22 0.00 93 1012.3
20260509050840 67 231 7.8 11.3 0.00 0.22 0.00 93 1012.6
20260509050619 67 226 8.7 11.3 0.00 0.22 0.00 94 1012.2
20260509050418 67 195 9.6 13.0 0.00 0.22 0.00 94 1012.2
20260509050219 67 181 7.8 9.6 0.00 0.22 0.00 93 1012.0
20260509050025 67 185 6.1 7.0 0.00 0.22 0.22 93 1012.4
20260509045823 67 220 5.2 7.0 0.00 0.22 0.22 93 1012.8
20260509045622 67 236 6.1 7.8 0.00 0.22 0.22 93 1012.7
20260509045423 67 226 7.0 8.7 0.00 0.22 0.22 93 1012.5
20260509045219 67 209 5.2 7.0 0.00 0.22 0.22 93 1012.5
20260509045017 67 204 5.2 6.1 0.00 0.22 0.22 93 1012.4
20260509044816 67 207 5.2 6.1 0.00 0.22 0.22 93 1012.3
20260509044624 67 179 4.3 5.2 0.00 0.22 0.22 93 1012.4
20260509044443 67 169 6.1 7.0 0.00 0.22 0.22 93 1012.2
20260509044222 67 177 6.1 7.8 0.00 0.22 0.22 93 1012.4
20260509044040 67 176 6.1 7.8 0.00 0.22 0.22 93 1012.4
20260509043819 68 171 7.0 8.7 0.00 0.22 0.22 92 1012.1
20260509043618 68 171 8.7 9.6 0.00 0.22 0.22 91 1012.2
20260509043416 68 173 7.8 8.7 0.00 0.22 0.22 91 1012.5
20260509043225 68 182 7.0 8.7 0.00 0.22 0.22 92 1012.9
20260509043023 68 194 6.1 8.7 0.00 0.22 0.22 91 1012.9
20260509042822 68 197 6.1 7.8 0.00 0.22 0.22 91 1013.1
20260509042621 69 199 6.1 7.8 0.00 0.22 0.22 90 1013.3
20260509042419 69 226 3.5 4.3 0.00 0.22 0.22 90 1013.3
20260509042217 69 235 3.5 4.3 0.00 0.22 0.22 90 1013.6
20260509042036 69 245 5.2 7.0 0.00 0.22 0.22 90 1013.7
20260509041825 69 242 4.3 5.2 0.00 0.22 0.22 90 1013.7
20260509041644 69 261 5.2 5.2 0.00 0.22 0.22 89 1013.8
20260509041422 69 309 2.6 3.5 0.00 0.22 0.22 89 1013.7
20260509041220 69 329 5.2 8.7 0.00 0.22 0.22 90 1014.0
20260509041019 69 345 6.1 9.6 0.00 0.22 0.22 90 1014.0
20260509040858 69 346 4.3 9.6 0.00 0.22 0.22 90 1014.0
20260509040616 68 346 8.7 15.6 0.00 0.22 0.22 91 1014.3
20260509040425 68 352 8.7 20.0 0.00 0.22 0.22 92 1014.2
20260509040224 68 331 9.6 16.5 0.00 0.22 0.22 92 1014.1
20260509040022 67 326 13.9 20.0 0.00 0.22 0.22 92 1014.0
20260509035820 67 321 15.6 21.7 0.00 0.22 0.22 93 1013.7
20260509035619 67 326 11.3 15.6 0.00 0.22 0.22 93 1013.1
20260509035420 67 325 7.8 9.6 0.00 0.22 0.22 93 1012.6
20260509035216 67 334 2.6 4.3 0.00 0.22 0.22 93 1012.4
20260509035025 67 5 1.7 2.6 0.00 0.22 0.22 93 1012.1
20260509034823 67 23 2.6 3.5 0.00 0.22 0.22 92 1012.3
20260509034622 67 27 3.5 3.5 0.00 0.22 0.22 92 1012.1
20260509034421 67 39 2.6 2.6 0.00 0.22 0.22 92 1012.1
20260509034219 67 59 2.6 2.6 0.00 0.22 0.22 92 1012.1
20260509034018 67 77 2.6 3.5 0.00 0.22 0.22 91 1011.9
20260509033836 67 77 2.6 3.5 0.00 0.22 0.22 91 1011.9
20260509033644 67 84 2.6 3.5 0.00 0.22 0.22 91 1011.6
20260509033443 68 104 2.6 4.3 0.00 0.22 0.22 91 1011.6
20260509033242 67 139 2.6 3.5 0.00 0.22 0.22 91 1011.6
20260509033020 67 158 3.5 3.5 0.00 0.22 0.22 91 1011.5
20260509032819 68 160 2.6 3.5 0.00 0.22 0.22 91 1011.6
20260509032617 68 153 3.5 5.2 0.00 0.22 0.22 91 1011.4
20260509032416 68 137 4.3 7.0 0.00 0.22 0.22 90 1011.5
20260509032245 68 121 4.3 6.1 0.00 0.22 0.22 90 1011.5
20260509032023 68 113 5.2 5.2 0.00 0.22 0.22 90 1011.3
20260509031822 68 116 5.2 7.0 0.00 0.22 0.22 90 1011.4
20260509031620 68 114 5.2 7.8 0.00 0.22 0.22 90 1011.3
20260509031419 68 108 3.5 6.1 0.00 0.22 0.22 90 1011.4
20260509031217 68 109 6.1 7.8 0.00 0.22 0.22 90 1011.3
20260509031016 68 104 3.5 5.2 0.00 0.22 0.22 90 1011.3
20260509030824 68 110 6.1 8.7 0.00 0.22 0.22 90 1011.4
20260509030625 68 126 5.2 7.0 0.00 0.22 0.22 89 1011.3
20260509030502 68 142 6.1 9.6 0.00 0.22 0.22 90 1011.3
20260509030220 68 151 6.1 7.8 0.00 0.22 0.22 90 1011.2
20260509030018 68 154 5.2 7.8 0.00 0.22 0.22 90 1011.1
20260509025817 68 161 7.0 9.6 0.00 0.22 0.22 90 1011.0
20260509025615 68 163 7.0 9.6 0.00 0.22 0.22 90 1010.9
20260509025424 68 159 6.1 8.7 0.00 0.22 0.22 89 1011.3
20260509025223 69 148 7.0 10.4 0.00 0.22 0.22 89 1010.9
20260509025022 68 139 6.1 8.7 0.00 0.22 0.22 89 1011.2
20260509024820 68 133 5.2 7.0 0.00 0.22 0.22 89 1011.1
20260509024618 68 120 5.2 7.0 0.00 0.22 0.22 89 1011.0
20260509024417 68 114 6.1 7.8 0.00 0.22 0.22 89 1011.1
20260509024225 68 110 6.1 7.8 0.00 0.22 0.22 89 1011.0
20260509024024 68 120 7.8 11.3 0.00 0.22 0.22 89 1010.8
20260509023824 68 119 7.0 9.6 0.00 0.22 0.22 89 1010.8
20260509023621 68 114 8.7 10.4 0.00 0.22 0.22 89 1010.8
20260509023420 69 114 7.8 10.4 0.00 0.22 0.22 89 1010.9
20260509023218 69 114 7.0 8.7 0.00 0.22 0.22 89 1011.0
20260509023016 68 109 7.0 9.6 0.00 0.22 0.22 89 1010.9
20260509022825 68 102 3.5 7.0 0.00 0.22 0.22 89 1011.2
20260509022624 68 98 3.5 6.1 0.00 0.22 0.22 89 1011.2
20260509022422 68 93 3.5 5.2 0.00 0.22 0.22 89 1011.3
20260509022220 69 87 4.3 6.1 0.00 0.22 0.22 89 1011.3
20260509022019 69 67 5.2 7.0 0.00 0.22 0.22 89 1011.4
20260509021838 69 62 4.3 6.1 0.00 0.22 0.22 89 1011.7
20260509021616 69 47 5.2 7.8 0.00 0.22 0.22 88 1011.6
20260509021425 68 41 6.1 9.6 0.00 0.22 0.22 89 1011.6
20260509021224 68 37 6.1 9.6 0.00 0.22 0.22 88 1011.8
20260509021042 69 39 7.0 7.8 0.00 0.22 0.22 88 1011.5
20260509020821 69 29 7.0 9.6 0.00 0.22 0.22 88 1011.3
20260509020619 69 35 6.1 7.8 0.00 0.22 0.22 87 1011.2
20260509020418 69 31 6.1 7.8 0.00 0.22 0.22 87 1011.0
20260509020236 69 32 6.1 7.0 0.00 0.22 0.22 87 1010.7
20260509020045 69 50 5.2 7.0 0.00 0.22 0.22 87 1010.7
20260509015845 69 67 4.3 6.1 0.00 0.22 0.22 87 1010.4
20260509015642 69 86 3.5 5.2 0.00 0.22 0.22 86 1010.4
20260509015423 69 91 2.6 5.2 0.00 0.22 0.22 86 1010.2
20260509015219 70 107 3.5 6.1 0.00 0.22 0.22 86 1010.1
20260509015017 70 113 4.3 6.1 0.00 0.22 0.22 85 1010.0
20260509014816 70 119 4.3 7.0 0.00 0.22 0.22 85 1009.7
20260509014626 70 117 5.2 7.0 0.00 0.22 0.22 85 1009.7
20260509014423 70 130 5.2 8.7 0.00 0.22 0.22 85 1009.5
20260509014242 70 144 5.2 8.7 0.00 0.22 0.22 85 1009.6
20260509014020 70 158 8.7 11.3 0.00 0.22 0.22 85 1009.3
20260509013819 70 158 7.8 10.4 0.00 0.22 0.22 85 1009.4
20260509013637 70 156 7.8 11.3 0.00 0.22 0.22 85 1009.4
20260509013536 70 162 7.8 11.3 0.00 0.22 0.22 85 1009.4
20260509013226 70 156 7.0 12.2 0.00 0.22 0.22 85 1009.3
20260509013023 70 167 8.7 10.4 0.00 0.22 0.22 85 1009.2
20260509012822 70 166 9.6 13.0 0.00 0.22 0.22 85 1009.3
20260509012620 70 169 7.0 9.6 0.00 0.22 0.22 85 1009.3
20260509012419 70 166 8.7 11.3 0.00 0.22 0.22 85 1009.2
20260509012217 70 163 7.8 9.6 0.00 0.22 0.22 85 1009.2
20260509012016 70 162 7.8 9.6 0.00 0.22 0.22 84 1009.4
20260509011844 70 164 6.1 8.7 0.00 0.22 0.22 84 1009.3
20260509011623 71 168 9.6 11.3 0.00 0.22 0.22 83 1009.4
20260509011421 71 166 8.7 11.3 0.00 0.22 0.22 83 1009.4
20260509011220 71 163 9.6 12.2 0.00 0.22 0.22 83 1009.3
20260509011039 71 160 7.0 9.6 0.00 0.22 0.22 83 1009.6
20260509010817 71 163 7.8 11.3 0.00 0.22 0.22 83 1009.3
20260509010616 71 157 8.7 10.4 0.00 0.22 0.22 83 1009.2
20260509010424 71 158 8.7 10.4 0.00 0.22 0.22 83 1009.5
20260509010223 71 163 7.0 7.8 0.00 0.22 0.22 83 1009.6
20260509010022 72 164 9.6 12.2 0.00 0.22 0.22 82 1009.6
20260509005820 72 170 7.0 8.7 0.00 0.22 0.22 82 1009.7
20260509005618 72 171 6.1 7.8 0.00 0.22 0.22 82 1009.7
20260509005417 72 171 7.8 10.4 0.00 0.22 0.22 81 1009.7
20260509005226 72 175 7.8 9.6 0.00 0.22 0.22 81 1009.8
20260509005024 72 173 10.4 11.3 0.00 0.22 0.22 81 1009.9
20260509004823 72 176 8.7 10.4 0.00 0.22 0.22 81 1009.8
20260509004621 72 172 9.6 12.2 0.00 0.22 0.22 81 1010.0
20260509004440 73 181 7.8 12.2 0.00 0.22 0.22 80 1010.1
20260509004218 73 176 8.7 13.0 0.00 0.22 0.22 79 1009.9
20260509004017 73 176 8.7 13.0 0.00 0.22 0.22 79 1010.1
20260509003825 73 175 9.6 11.3 0.00 0.22 0.22 79 1009.9
20260509003644 73 194 8.7 10.4 0.00 0.22 0.22 78 1009.9
20260509003443 73 194 9.6 13.0 0.00 0.22 0.22 78 1010.0
20260509003221 73 201 8.7 11.3 0.00 0.22 0.22 78 1009.8
20260509003021 74 191 8.7 10.4 0.00 0.22 0.22 78 1009.7
20260509002818 74 184 11.3 16.5 0.00 0.22 0.22 77 1009.8
20260509002616 74 202 10.4 14.8 0.00 0.22 0.22 77 1009.8
20260509002425 74 193 7.8 9.6 0.00 0.22 0.22 77 1009.8
20260509002223 74 189 8.7 10.4 0.00 0.22 0.22 77 1010.0
20260509002024 74 179 9.6 11.3 0.00 0.22 0.22 76 1010.0
20260509001841 74 194 10.4 13.0 0.00 0.22 0.22 76 1009.9
20260509001619 74 189 7.0 9.6 0.00 0.22 0.22 76 1009.9
20260509001418 74 176 7.8 12.2 0.00 0.22 0.22 76 1010.0
20260509001218 74 168 8.7 11.3 0.00 0.22 0.22 75 1009.8
20260509001027 75 166 7.0 9.6 0.00 0.22 0.22 75 1009.9
20260509000944 74 164 8.7 11.3 0.00 0.22 0.22 75 1010.0
20260509000622 74 175 9.6 12.2 0.00 0.22 0.22 74 1009.6
20260509000420 74 171 11.3 14.8 0.00 0.22 0.22 74 1009.6
20260509000219 75 182 11.3 13.0 0.00 0.22 0.22 74 1009.6
20260509000021 75 179 11.3 14.8 0.00 0.22 0.22 74 1009.6
20260508235816 75 172 13.0 15.6 0.00 0.22 0.22 74 1009.7
20260508235625 75 171 13.0 15.6 0.00 0.22 0.22 74 1009.5
20260508235443 75 180 12.2 16.5 0.00 0.22 0.22 74 1009.6
20260508235222 75 184 11.3 14.8 0.00 0.22 0.22 74 1009.5
20260508235020 75 193 10.4 13.9 0.00 0.22 0.22 74 1009.5
20260508234841 75 179 10.4 15.6 0.00 0.22 0.22 74 1009.5
20260508234637 75 171 11.3 13.0 0.00 0.22 0.22 74 1009.5
20260508234416 76 179 9.6 11.3 0.00 0.22 0.22 74 1009.7
20260508234224 75 183 10.4 13.0 0.00 0.22 0.22 73 1009.7
20260508234023 76 173 10.4 14.8 0.00 0.22 0.22 73 1009.5
20260508233821 76 170 8.7 12.2 0.00 0.22 0.22 74 1009.5
20260508233640 76 155 11.3 13.9 0.00 0.22 0.22 72 1009.7
20260508233419 76 183 8.7 12.2 0.00 0.22 0.22 73 1009.6
20260508233217 76 179 8.7 10.4 0.00 0.22 0.22 73 1009.5
20260508233036 76 165 7.8 13.0 0.00 0.22 0.22 73 1009.4
20260508232824 76 176 10.4 13.0 0.00 0.22 0.22 73 1009.7
20260508232645 76 178 10.4 13.0 0.00 0.22 0.22 73 1009.6
20260508232424 76 173 10.4 13.0 0.00 0.22 0.22 73 1009.6
20260508232220 76 182 11.3 13.9 0.00 0.22 0.22 73 1009.5
20260508232018 76 177 11.3 13.0 0.00 0.22 0.22 72 1009.7
20260508231817 76 172 10.4 14.8 0.00 0.22 0.22 73 1009.7
20260508231615 77 153 7.0 12.2 0.00 0.22 0.22 72 1009.7
20260508231445 76 173 9.6 13.9 0.00 0.22 0.22 73 1009.7
20260508231222 76 165 11.3 13.9 0.00 0.22 0.22 72 1009.6
20260508231021 77 173 9.6 12.2 0.00 0.22 0.22 73 1009.9
20260508230820 76 170 8.7 12.2 0.00 0.22 0.22 73 1009.8
20260508230639 77 168 10.4 13.0 0.00 0.22 0.22 72 1009.9
20260508230417 77 149 9.6 11.3 0.00 0.22 0.22 72 1009.8
20260508230305 77 173 10.4 13.0 0.00 0.22 0.22 72 1010.0
20260508230044 77 173 12.2 14.8 0.00 0.22 0.22 72 1010.0
20260508225823 77 174 8.7 11.3 0.00 0.22 0.22 73 1009.8
20260508225623 77 159 10.4 13.0 0.00 0.22 0.22 71 1009.7
20260508225439 77 168 11.3 13.9 0.00 0.22 0.22 72 1009.9
20260508225218 77 168 11.3 14.8 0.00 0.22 0.22 72 1009.9
20260508225017 77 169 10.4 14.8 0.00 0.22 0.22 72 1010.0
20260508224945 78 152 11.3 16.5 0.00 0.22 0.22 71 1009.9
20260508224624 78 145 9.6 11.3 0.00 0.22 0.22 70 1009.9
20260508224422 78 152 7.8 13.0 0.00 0.22 0.22 71 1010.0
20260508224221 78 145 9.6 12.2 0.00 0.22 0.22 70 1009.9
20260508224021 78 140 8.7 12.2 0.00 0.22 0.22 70 1009.8
20260508223819 78 168 9.6 12.2 0.00 0.22 0.22 71 1010.0
20260508223616 78 158 7.8 13.0 0.00 0.22 0.22 70 1010.0
20260508223445 78 146 8.7 12.2 0.00 0.22 0.22 70 1010.1
20260508223224 78 162 8.7 13.0 0.00 0.22 0.22 70 1009.9
20260508223022 78 164 8.7 11.3 0.00 0.22 0.22 70 1009.9
20260508222823 78 160 8.7 13.0 0.00 0.22 0.22 70 1009.9
20260508222619 78 141 6.1 10.4 0.00 0.22 0.22 69 1010.0
20260508222438 78 165 8.7 10.4 0.00 0.22 0.22 71 1009.8
20260508222217 78 185 9.6 13.0 0.00 0.22 0.22 70 1009.9
20260508222025 77 166 6.1 9.6 0.00 0.22 0.22 71 1010.0
20260508221824 78 160 7.0 9.6 0.00 0.22 0.22 70 1010.1
20260508221622 77 158 9.6 11.3 0.00 0.22 0.22 71 1010.0
20260508221421 78 159 7.8 11.3 0.00 0.22 0.22 71 1010.1
20260508221219 77 179 7.8 9.6 0.00 0.22 0.22 71 1009.9
20260508221018 77 205 8.7 11.3 0.00 0.22 0.22 71 1009.9
20260508220836 78 187 7.8 11.3 0.00 0.22 0.22 71 1009.9
20260508220627 77 171 8.7 13.0 0.00 0.22 0.22 71 1009.7
20260508220424 78 183 9.6 12.2 0.00 0.22 0.22 70 1010.1
20260508220222 77 194 8.7 10.4 0.00 0.22 0.22 70 1009.9
20260508220021 78 142 8.7 12.2 0.00 0.22 0.22 69 1009.8
20260508215821 78 145 7.8 11.3 0.00 0.22 0.22 69 1009.9
20260508215621 78 140 7.0 8.7 0.00 0.22 0.22 68 1010.0
20260508215416 78 148 7.0 10.4 0.00 0.22 0.22 69 1010.1
20260508215225 79 156 7.8 11.3 0.00 0.22 0.22 69 1010.2
20260508215023 78 165 6.1 9.6 0.00 0.22 0.22 70 1010.0
20260508214822 77 138 6.1 8.7 0.00 0.22 0.22 69 1010.1
20260508214621 77 162 7.8 10.4 0.00 0.22 0.22 70 1010.2
20260508214419 77 154 8.7 13.0 0.00 0.22 0.22 70 1010.0
20260508214220 77 135 8.7 13.0 0.00 0.22 0.22 70 1010.3
20260508214019 77 154 10.4 13.0 0.00 0.22 0.22 69 1010.2
20260508213827 77 139 8.7 12.2 0.00 0.22 0.22 69 1010.3
20260508213623 77 171 9.6 12.2 0.00 0.22 0.22 71 1010.1
20260508213422 77 170 9.6 11.3 0.00 0.22 0.22 70 1010.2
20260508213223 77 169 10.4 12.2 0.00 0.22 0.22 71 1010.1
20260508213039 78 174 9.6 13.9 0.00 0.22 0.22 70 1010.3
20260508212817 77 167 6.1 9.6 0.00 0.22 0.22 71 1010.2
20260508212616 77 155 7.0 9.6 0.00 0.22 0.22 70 1010.2
20260508212427 77 192 9.6 12.2 0.00 0.22 0.22 70 1010.4
20260508212223 77 149 4.3 7.8 0.00 0.22 0.22 69 1010.4
20260508212022 76 170 7.8 11.3 0.00 0.22 0.22 71 1010.5
20260508211842 76 179 7.8 11.3 0.00 0.22 0.22 70 1010.4
20260508211619 77 169 8.7 13.0 0.00 0.22 0.22 70 1010.5
20260508211417 77 152 8.7 12.2 0.00 0.22 0.22 69 1010.4
20260508211218 77 130 7.8 11.3 0.00 0.22 0.22 69 1010.6
20260508211045 77 151 8.7 13.9 0.00 0.22 0.22 70 1010.5
20260508210823 77 151 7.8 12.2 0.00 0.22 0.22 71 1010.6
20260508210621 76 153 9.6 13.9 0.00 0.22 0.22 71 1010.4
20260508210422 76 186 12.2 14.8 0.00 0.22 0.22 72 1010.5
20260508210220 76 179 11.3 14.8 0.00 0.22 0.22 72 1010.6
20260508210017 76 183 12.2 15.6 0.00 0.22 0.22 72 1010.6
20260508205816 76 192 13.0 20.0 0.00 0.22 0.22 72 1010.5
20260508205624 76 195 11.3 15.6 0.00 0.22 0.22 72 1010.5
20260508205443 76 198 12.2 16.5 0.00 0.22 0.22 72 1010.7
20260508205221 76 204 13.0 20.0 0.00 0.22 0.22 73 1010.6
20260508205041 76 183 13.0 17.4 0.00 0.22 0.22 72 1010.7
20260508204818 76 201 11.3 16.5 0.00 0.22 0.22 72 1010.7
20260508204617 76 183 13.9 20.9 0.00 0.22 0.22 72 1010.8
20260508204416 77 182 11.3 13.9 0.00 0.22 0.22 72 1010.8
20260508204227 77 172 13.0 17.4 0.00 0.22 0.22 72 1010.9
20260508204023 77 187 13.9 18.2 0.00 0.22 0.22 72 1010.9
20260508203821 77 187 13.0 18.2 0.00 0.22 0.22 72 1010.9
20260508203640 78 186 7.8 9.6 0.00 0.22 0.22 72 1011.1
20260508203441 77 168 11.3 17.4 0.00 0.22 0.22 71 1011.0
20260508203219 77 167 12.2 17.4 0.00 0.22 0.22 71 1011.1
20260508203018 78 168 13.9 19.1 0.00 0.22 0.22 70 1011.0
20260508202844 77 152 10.4 13.9 0.00 0.22 0.22 70 1011.0
20260508202623 77 173 13.0 15.6 0.00 0.22 0.22 70 1011.1
20260508202421 77 181 13.0 16.5 0.00 0.22 0.22 70 1011.2
20260508202240 77 183 12.2 15.6 0.00 0.22 0.22 70 1011.2
20260508202018 78 188 10.4 13.9 0.00 0.22 0.22 70 1011.3